Cross City, FL

10:05 PM EST on December 08, 2019 (GMT -0500)
Cross City

Weather History for KCTY - October, 2019

Change the Weather History Date:

Sunday, October 20, 2019

  Actual Average Record
Temperature  
Mean Temperature 75 °F 69 °F  
Max Temperature 84 °F 82 °F 89 °F (2018)
Min Temperature 66 °F 56 °F 43 °F (2011)
Degree Days  
Heating Degree Days 0    
Month to date heating degree days 2  
Since 1 July heating degree days 2  
Cooling Degree Days 10    
Month to date cooling degree days 225  
Year to date cooling degree days 2982  
Growing Degree Days 24 (Base 50)    
Moisture  
Dew Point 67 °F    
Average Humidity 83    
Maximum Humidity 98    
Minimum Humidity 52    
Precipitation  
Precipitation 0.00 in 0.09 in 1.56 in (2004)
Month to date precipitation 1.95 2.43  
Year to date precipitation 49.42 42.26  
Sea Level Pressure  
Sea Level Pressure 29.90 in    
Wind  
Wind Speed 6 mph (WNW)    
Max Wind Speed 12 mph    
Max Gust Speed 16 mph    
Visibility 10 miles    
Events      
T = Trace of Precipitation, MM = Missing Value Source: NWS Daily Summary

Daily Weather History Graph

Daily Weather History Graph

Search for Another Location

Airport or City:

Astronomy

Oct. 20, 2019 Rise Set
Actual Time 7:37 AM EDT 6:56 PM EDT
Civil Twilight 7:12 AM EDT 7:20 PM EDT
Nautical Twilight 6:45 AM EDT 7:48 PM EDT
Astronomical Twilight 6:17 AM EDT 8:16 PM EDT
Moon No Moon Rise 1:46 PM EDT (10/20)
Length of Visible Light 12h 08m
Length of Day
11h 19m
Waning Gibbous, 59% of the Moon is Illuminated
Oct 20
Waning Gibbous
Oct 21
Last Quarter
Oct 27
New
Nov 4
First Quarter
Nov 12
Full

Hourly Weather History & Observations

Time (EDT) Temp. Heat Index Dew Point Humidity Pressure Visibility Wind Dir Wind Speed Gust Speed Precip Events Conditions
12:15 AM 74.1 °F - 72.0 °F 93% 29.77 in 10.0 mi WSW 9.2 mph - N/A   Unknown
12:35 AM 73.8 °F - 71.6 °F 93% 29.77 in 10.0 mi WSW 8.1 mph - N/A   Unknown
12:55 AM 73.6 °F - 71.2 °F 92% 29.78 in 10.0 mi WSW 11.5 mph - N/A   Unknown
1:15 AM 73.0 °F - 70.7 °F 92% 29.78 in 10.0 mi WSW 9.2 mph - N/A   Unknown
1:30 AM 73.4 °F - 69.8 °F 88% 29.78 in 10.0 mi WSW 6.9 mph - N/A   Unknown
1:55 AM 72.1 °F - 69.8 °F 92% 29.78 in 10.0 mi WSW 6.9 mph - N/A   Unknown
2:15 AM 71.8 °F - 69.4 °F 92% 29.78 in 10.0 mi WSW 8.1 mph - N/A   Unknown
2:35 AM 71.8 °F - 69.6 °F 93% 29.78 in 10.0 mi WSW 5.8 mph - N/A   Unknown
2:55 AM 71.6 °F - 69.6 °F 93% 29.78 in 10.0 mi WSW 4.6 mph - N/A   Unknown
3:15 AM 71.4 °F - 69.6 °F 94% 29.79 in 10.0 mi West 5.8 mph - N/A   Unknown
3:35 AM 71.4 °F - 69.6 °F 94% 29.79 in 10.0 mi West 6.9 mph - N/A   Unknown
3:55 AM 71.4 °F - 69.8 °F 95% 29.79 in 10.0 mi West 8.1 mph - N/A   Unknown
4:15 AM 71.6 °F - 69.6 °F 93% 29.79 in 10.0 mi West 6.9 mph - N/A   Unknown
4:35 AM 72.0 °F - 69.8 °F 93% 29.80 in 10.0 mi West 9.2 mph - N/A   Unknown
4:55 AM 71.8 °F - 69.3 °F 92% 29.81 in 10.0 mi WNW 11.5 mph - N/A   Unknown
5:15 AM 71.2 °F - 68.7 °F 92% 29.82 in 10.0 mi WNW 9.2 mph - N/A   Unknown
5:35 AM 70.5 °F - 67.8 °F 91% 29.83 in 10.0 mi WNW 8.1 mph 16.1 mph N/A   Unknown
6:15 AM 69.8 °F - 67.3 °F 92% 29.85 in 10.0 mi WNW 6.9 mph - N/A   Unknown
6:35 AM 69.1 °F - 66.7 °F 92% 29.86 in 10.0 mi NW 5.8 mph - N/A   Unknown
6:55 AM 68.0 °F - 65.8 °F 93% 29.87 in 10.0 mi WNW 5.8 mph - N/A   Unknown
7:15 AM 67.6 °F - 65.7 °F 93% 29.88 in 10.0 mi WNW 4.6 mph - N/A   Unknown
7:35 AM 66.7 °F - 65.3 °F 95% 29.88 in 10.0 mi NW 3.5 mph - N/A   Unknown
7:55 AM 66.4 °F - 64.9 °F 95% 29.89 in 10.0 mi WNW 4.6 mph - N/A   Unknown
8:15 AM 67.5 °F - 65.8 °F 95% 29.91 in 10.0 mi WNW 4.6 mph - N/A   Unknown
8:35 AM 68.2 °F - 65.7 °F 92% 29.91 in 10.0 mi WNW 6.9 mph - N/A   Unknown
8:55 AM 68.0 °F - 66.2 °F 94% 29.92 in 10.0 mi NW 9.2 mph - N/A   Unknown
9:15 AM 69.4 °F - 65.7 °F 88% 29.92 in 10.0 mi NW 10.4 mph - N/A   Unknown
9:35 AM 70.0 °F - 65.3 °F 85% 29.94 in 10.0 mi NW 10.4 mph - N/A   Unknown
9:55 AM 70.7 °F - 65.3 °F 83% 29.95 in 10.0 mi West 8.1 mph - N/A   Unknown
10:15 AM 71.6 °F - 65.3 °F 80% 29.95 in 10.0 mi WNW 9.2 mph - N/A   Unknown
10:35 AM 72.3 °F - 65.7 °F 79% 29.95 in 10.0 mi WNW 8.1 mph - N/A   Unknown
10:55 AM 72.9 °F - 65.5 °F 78% 29.95 in 10.0 mi West 6.9 mph - N/A   Unknown
11:15 AM 74.3 °F - 65.3 °F 73% 29.96 in 10.0 mi NW 10.4 mph - N/A   Unknown
11:35 AM 74.3 °F - 65.1 °F 73% 29.96 in 10.0 mi WNW 10.4 mph - N/A   Unknown
11:55 AM 75.2 °F - 65.7 °F 72% 29.96 in 10.0 mi West 6.9 mph - N/A   Unknown
12:15 PM 75.9 °F - 65.7 °F 70% 29.96 in 10.0 mi Calm Calm - N/A   Unknown
12:35 PM 77.2 °F - 66.0 °F 68% 29.96 in 10.0 mi WNW 4.6 mph - N/A   Unknown
12:55 PM 77.9 °F - 66.4 °F 68% 29.95 in 10.0 mi NW 5.8 mph - N/A   Unknown
1:15 PM 78.3 °F - 66.4 °F 67% 29.95 in 10.0 mi NW 4.6 mph - N/A   Unknown
1:35 PM 79.0 °F - 66.6 °F 66% 29.94 in 10.0 mi WNW 5.8 mph - N/A   Unknown
1:55 PM 79.9 °F - 66.0 °F 62% 29.94 in 10.0 mi West 6.9 mph - N/A   Unknown
2:15 PM 80.6 °F 82.8 °F 66.4 °F 62% 29.93 in 10.0 mi WSW 5.8 mph - N/A   Unknown
2:35 PM 80.6 °F 82.7 °F 66.2 °F 61% 29.92 in 10.0 mi NNW 8.1 mph - N/A   Unknown
2:55 PM 81.1 °F 83.4 °F 66.7 °F 61% 29.92 in 10.0 mi WNW 4.6 mph - N/A   Unknown
3:15 PM 81.9 °F 84.4 °F 67.1 °F 61% 29.92 in 10.0 mi WNW 6.9 mph - N/A   Unknown
3:55 PM 82.9 °F 85.8 °F 67.6 °F 60% 29.91 in 10.0 mi ESE 3.5 mph - N/A   Unknown
4:15 PM 83.3 °F 86.2 °F 67.5 °F 59% 29.91 in 10.0 mi WNW 4.6 mph - N/A   Unknown
4:35 PM 82.9 °F 85.8 °F 67.8 °F 60% 29.91 in 10.0 mi West 5.8 mph - N/A   Unknown
4:55 PM 82.6 °F 85.3 °F 67.6 °F 60% 29.91 in 10.0 mi NW 5.8 mph - N/A   Unknown
5:15 PM 82.2 °F 84.7 °F 67.1 °F 60% 29.90 in 10.0 mi Calm Calm - N/A   Unknown
5:35 PM 82.0 °F 84.5 °F 66.9 °F 60% 29.91 in 10.0 mi NNW 4.6 mph - N/A   Unknown
5:55 PM 81.1 °F 84.2 °F 68.9 °F 66% 29.92 in 10.0 mi NW 3.5 mph - N/A   Unknown
6:15 PM 79.9 °F - 69.3 °F 70% 29.92 in 10.0 mi West 4.6 mph - N/A   Unknown
6:35 PM 78.4 °F - 69.6 °F 74% 29.92 in 10.0 mi Calm Calm - N/A   Unknown
6:55 PM 76.5 °F - 69.8 °F 80% 29.92 in 10.0 mi NW 3.5 mph - N/A   Unknown
7:15 PM 73.6 °F - 69.3 °F 86% 29.92 in 10.0 mi WSW 3.5 mph - N/A   Unknown
7:35 PM 73.2 °F - 69.6 °F 88% 29.93 in 10.0 mi West 3.5 mph - N/A   Unknown
7:55 PM 72.0 °F - 69.1 °F 91% 29.94 in 10.0 mi SSW 3.5 mph - N/A   Unknown
8:15 PM 71.2 °F - 68.9 °F 92% 29.94 in 10.0 mi WSW 3.5 mph - N/A   Unknown
8:35 PM 70.2 °F - 68.4 °F 94% 29.95 in 10.0 mi SW 3.5 mph - N/A   Unknown
8:55 PM 69.6 °F - 67.6 °F 93% 29.96 in 10.0 mi WNW 3.5 mph - N/A   Unknown
9:15 PM 68.5 °F - 67.1 °F 95% 29.96 in 10.0 mi NNW 3.5 mph - N/A   Unknown
9:35 PM 68.5 °F - 67.3 °F 96% 29.96 in 10.0 mi Calm Calm - N/A   Unknown
9:55 PM 67.5 °F - 66.6 °F 97% 29.97 in 10.0 mi Calm Calm - N/A   Unknown
10:15 PM 66.6 °F - 65.7 °F 97% 29.97 in 10.0 mi Calm Calm - N/A   Unknown
10:35 PM 65.7 °F - 64.9 °F 98% 29.97 in 10.0 mi Calm Calm - N/A   Unknown
10:55 PM 64.9 °F - 64.2 °F 98% 29.97 in 10.0 mi Calm Calm - N/A   Unknown
11:15 PM 64.9 °F - 64.0 °F 97% 29.98 in 3.5 mi Calm Calm - N/A   Mist
11:35 PM 64.6 °F - 63.5 °F 96% 29.98 in 10.0 mi Calm Calm - N/A   Unknown
11:55 PM 64.2 °F - 63.3 °F 97% 29.98 in 10.0 mi Calm Calm - N/A   Unknown